Date,TemperatureHighF,TemperatureAvgF,TemperatureLowF,DewpointHighF,DewpointAvgF,DewpointLowF,HumidityHigh,HumidityAvg,HumidityLow,PressureMaxIn,PressureMinIn,WindSpeedMaxMPH,WindSpeedAvgMPH,GustSpeedMaxMPH,PrecipitationSumIn
2012-1-1,73,58,47,62,55,46,100,89,63,30.27,30.09,9,1,14,0.00
2012-1-2,62,51,41,61,34,22,96,54,30,30.22,30.09,12,2,17,0.00
2012-1-3,44,34,23,23,16,12,82,48,28,30.41,30.14,15,1,17,0.00
2012-1-4,54,34,19,23,18,14,92,58,22,30.48,30.29,7,0,10,0.00
2012-1-5,67,48,34,48,38,24,93,70,43,30.31,30.13,12,1,14,0.00
2012-1-6,72,51,34,49,41,33,97,74,37,30.22,30.09,9,1,11,0.00
2012-1-7,73,56,41,57,50,40,97,83,53,30.19,30.09,7,1,10,0.00
2012-1-8,76,58,42,58,50,41,98,78,44,30.26,30.16,7,0,7,0.00
2012-1-9,77,58,43,60,52,42,97,82,51,30.25,30.10,5,0,10,0.01
2012-1-10,76,60,45,62,54,43,98,83,58,30.12,29.88,8,0,11,0.00
2012-1-11,71,63,51,64,57,48,95,83,64,29.90,29.66,10,1,17,0.06
2012-1-12,72,57,41,59,50,39,97,79,51,29.89,29.74,17,2,19,0.01
2012-1-13,56,45,34,44,26,20,68,49,27,30.24,29.89,13,2,16,0.00
2012-1-14,56,40,27,29,25,21,82,58,29,30.40,30.23,10,1,14,0.08
2012-1-15,63,40,33,37,32,26,89,74,25,30.49,30.30,7,1,11,0.03
2012-1-16,68,47,29,51,40,27,96,79,54,30.55,30.36,7,0,13,0.00
2012-1-17,76,56,40,56,49,38,97,78,49,30.37,30.08,9,1,13,0.00
2012-1-18,63,57,41,61,53,37,96,88,77,30.09,29.97,6,0,10,0.09
2012-1-19,65,45,30,38,33,26,95,69,23,30.23,30.07,4,0,9,0.04
2012-1-20,74,54,34,54,43,32,96,72,39,30.19,30.09,7,0,12,0.00
2012-1-21,75,61,48,62,55,45,95,81,64,30.13,29.99,11,1,19,0.01
2012-1-22,64,60,55,63,59,55,98,96,92,30.21,30.03,7,0,10,0.05
2012-1-23,78,62,55,65,58,53,100,87,56,30.20,30.02,6,0,11,0.01
2012-1-24,77,65,55,68,62,53,97,89,67,30.21,30.05,7,0,10,0.00
2012-1-25,78,64,57,66,60,55,98,88,62,30.24,30.12,5,0,7,0.00
2012-1-26,82,67,56,68,61,55,98,82,54,30.13,29.87,14,1,14,0.00
2012-1-27,71,63,43,65,55,41,95,76,50,30.07,29.79,16,2,20,0.00
2012-1-28,70,51,36,48,41,34,97,74,36,30.23,30.06,7,1,12,0.00
2012-1-29,65,48,33,41,37,31,98,69,30,30.39,30.20,9,0,9,0.00
2012-1-30,67,44,26,36,29,22,100,63,20,30.46,30.35,7,0,10,0.02
2012-1-31,72,50,30,53,41,28,97,76,41,30.44,30.30,8,0,9,0.00
2012-2-1,78,60,43,59,52,42,98,77,43,30.31,30.15,8,0,11,0.00
2012-2-2,76,63,51,62,57,50,96,81,57,30.23,30.11,12,0,14,0.00
2012-2-3,72,60,49,56,53,47,97,81,56,30.33,30.20,8,1,14,0.00
2012-2-4,79,65,55,63,58,53,97,80,53,30.28,30.09,9,1,12,0.00
2012-2-5,80,65,56,66,59,54,98,83,59,30.09,29.99,10,1,13,0.00
2012-2-6,63,59,53,59,56,51,97,92,83,30.17,30.05,6,0,8,0.01
2012-2-7,66,57,46,55,50,43,95,80,55,30.16,30.08,4,0,7,0.00
2012-2-8,72,52,38,50,42,36,97,73,35,30.18,30.05,5,0,11,0.00
2012-2-9,67,51,37,51,43,33,92,75,51,30.26,30.13,6,0,9,0.00
2012-2-10,69,56,46,59,53,44,96,87,70,30.18,29.91,4,0,5,0.02
2012-2-11,60,50,32,54,37,11,96,66,38,30.23,29.86,12,2,20,0.03
2012-2-12,49,33,22,20,14,10,77,47,21,30.40,30.22,12,1,15,0.01
2012-2-13,60,38,18,36,23,15,93,61,21,30.34,30.15,5,0,8,0.00
2012-2-14,64,50,31,57,46,29,96,88,68,30.15,30.02,4,0,6,0.02
2012-2-15,63,59,57,62,58,56,98,97,95,30.22,30.08,5,0,6,0.01
2012-2-16,76,63,56,67,60,55,98,91,72,30.20,30.02,11,1,14,0.17
2012-2-17,69,64,58,64,61,56,98,92,78,30.09,29.99,5,0,5,0.10
2012-2-18,70,61,55,62,58,54,97,90,75,30.06,29.84,5,0,7,0.01
2012-2-19,83,67,57,72,60,50,99,79,40,29.90,29.61,35,3,35,1.29
2012-2-20,61,52,43,51,42,38,90,71,46,30.30,29.90,9,1,16,0.00
2012-2-21,70,54,40,56,48,38,96,82,57,30.30,30.10,5,0,11,0.00
2012-2-22,75,61,45,64,56,44,98,85,60,30.11,29.80,11,1,11,0.29
2012-2-23,81,73,65,70,67,64,97,84,66,29.85,29.77,13,3,19,0.10
2012-2-24,86,72,57,71,65,45,94,80,59,30.04,29.77,23,3,25,0.07
2012-2-25,58,52,39,46,34,24,84,51,27,30.32,30.03,7,1,13,0.07
2012-2-26,54,46,37,52,44,34,97,89,73,30.44,30.30,6,0,9,0.08
2012-2-27,64,59,52,63,58,50,98,97,92,30.36,30.28,5,0,5,0.64
2012-2-28,71,63,58,64,60,57,98,92,77,30.35,30.26,6,0,6,0.02
2012-2-29,82,67,54,69,62,52,98,85,61,30.27,30.05,8,1,13,0.00
2012-3-1,77,71,66,69,66,63,94,85,74,30.05,29.93,11,2,15,0.00
2012-3-2,80,70,64,67,64,62,97,82,59,30.02,29.85,12,1,16,0.00
2012-3-3,76,68,58,72,65,57,97,90,76,29.85,29.68,11,1,20,1.05
2012-3-4,62,52,40,57,41,30,97,70,32,30.19,29.70,14,2,20,1.61
2012-3-5,74,55,38,47,40,33,91,61,29,30.42,30.19,18,2,21,0.00
2012-3-6,67,54,40,52,44,32,90,70,54,30.54,30.41,10,1,16,0.00
2012-3-7,76,62,52,58,54,49,95,76,49,30.50,30.35,10,1,16,0.00
2012-3-8,82,65,51,64,58,49,98,80,46,30.36,30.17,9,1,11,0.00
2012-3-9,83,67,54,69,62,53,98,83,55,30.22,30.08,10,1,12,0.00
2012-3-10,70,62,55,60,53,46,95,72,46,30.37,30.19,12,2,16,0.00
2012-3-11,74,65,58,61,58,55,93,79,60,30.40,30.32,10,2,16,0.00
2012-3-12,79,67,59,61,58,55,92,74,50,30.38,30.25,10,1,12,0.00
2012-3-13,81,67,55,63,59,53,97,77,52,30.30,30.17,5,0,7,0.00
2012-3-14,86,68,56,67,60,54,97,77,43,30.25,30.15,5,0,10,0.00
2012-3-15,85,67,52,66,59,51,98,78,41,30.30,30.18,5,0,11,0.00
2012-3-16,85,69,55,67,60,54,98,75,45,30.27,30.12,6,0,7,0.00
2012-3-17,86,70,56,67,61,54,97,77,43,30.25,30.12,12,0,12,0.00
2012-3-18,86,69,53,65,59,52,100,73,41,30.28,30.15,5,0,9,0.01
2012-3-19,88,69,54,65,58,52,98,73,39,30.22,30.09,7,0,9,0.00
2012-3-20,84,68,56,68,60,54,98,78,49,30.18,30.08,11,1,13,0.00
2012-3-21,82,69,56,69,63,55,98,84,57,30.20,30.10,10,1,12,0.02
2012-3-22,86,71,59,69,64,58,98,79,51,30.22,30.09,6,1,10,0.01
2012-3-23,87,70,60,74,65,59,98,86,51,30.14,29.96,6,1,10,0.41
2012-3-24,77,67,62,71,65,61,98,92,76,30.01,29.83,9,1,10,0.43
2012-3-25,77,66,55,65,56,50,97,73,41,29.88,29.78,16,1,21,0.55
2012-3-26,83,67,52,60,54,49,93,68,38,30.03,29.86,6,0,10,0.00
2012-3-27,79,63,49,65,57,48,97,82,58,30.24,30.03,9,1,13,0.00
2012-3-28,84,67,54,66,58,52,100,77,41,30.23,30.05,6,0,12,0.00
2012-3-29,86,70,56,64,58,54,97,70,36,30.07,29.93,7,1,11,0.00
2012-3-30,86,70,53,67,58,51,97,70,35,30.05,29.91,10,1,12,0.00
2012-3-31,74,67,62,69,64,59,96,90,80,29.96,29.80,6,0,10,0.61
2012-4-1,87,71,58,68,62,57,98,76,40,29.91,29.81,9,1,14,0.01
2012-4-2,89,74,64,70,64,61,96,74,44,29.89,29.80,10,1,13,0.00
2012-4-3,88,74,62,70,66,61,97,76,45,29.99,29.85,8,0,13,0.15
2012-4-4,87,74,63,70,65,62,97,78,49,29.95,29.74,10,1,13,0.16
2012-4-5,87,73,65,68,64,61,96,77,43,29.79,29.67,15,1,17,0.00
2012-4-6,77,65,52,65,59,49,94,81,55,30.08,29.68,11,1,15,0.00
2012-4-7,73,58,42,53,46,40,96,69,37,30.24,30.07,9,1,12,0.00
2012-4-8,79,62,44,55,48,42,96,66,33,30.23,30.07,5,0,10,0.00
2012-4-9,84,67,52,59,54,49,95,69,37,30.10,29.96,5,0,10,0.00
2012-4-10,83,66,50,56,50,41,96,63,23,30.09,29.94,6,0,9,0.00
2012-4-11,80,65,51,53,47,40,94,58,28,30.07,29.94,11,1,14,0.00
2012-4-12,72,58,47,51,45,35,87,63,42,30.19,30.04,9,1,16,0.00
2012-4-13,77,61,46,59,52,44,96,74,50,30.23,30.11,7,1,9,0.00
2012-4-14,80,64,48,66,56,46,95,77,51,30.29,30.18,6,0,13,0.00
2012-4-15,84,70,59,65,60,56,96,73,45,30.25,30.16,6,1,11,0.00
2012-4-16,87,69,52,66,59,51,98,74,38,30.25,30.14,6,0,10,0.00
2012-4-17,86,71,58,65,61,56,97,74,39,30.20,30.05,7,0,9,0.00
2012-4-18,82,70,62,68,64,59,95,82,54,30.09,29.96,9,0,11,0.04
2012-4-19,80,70,62,72,66,61,97,89,71,29.99,29.89,6,0,10,0.06
2012-4-20,86,73,66,70,65,56,98,79,39,29.94,29.80,7,1,11,0.01
2012-4-21,81,68,61,70,65,60,97,89,62,29.83,29.62,4,0,5,0.45
2012-4-22,75,66,60,68,60,43,98,82,51,29.71,29.50,10,1,13,0.25
2012-4-23,68,57,47,45,41,37,79,57,36,29.90,29.70,15,2,21,0.00
2012-4-24,74,57,40,44,39,34,82,56,30,29.99,29.89,12,2,16,0.00
2012-4-25,85,67,47,56,50,43,93,59,33,30.08,29.95,11,1,14,0.00
2012-4-26,90,72,51,64,57,48,96,64,35,30.09,29.95,11,2,15,0.00
2012-4-27,89,74,58,67,61,55,98,69,32,30.12,29.99,11,1,14,0.00
2012-4-28,92,76,57,68,61,54,97,65,29,30.12,30.01,6,0,11,0.00
2012-4-29,92,74,61,74,64,58,97,74,36,30.14,30.04,5,0,12,0.00
2012-4-30,88,73,59,72,65,57,98,79,51,30.17,30.09,6,0,12,0.00
2012-5-1,88,74,63,73,66,61,98,78,51,30.16,30.06,7,1,11,0.01
2012-5-2,89,74,61,72,66,60,98,79,52,30.14,30.06,10,1,11,0.00
2012-5-3,89,73,59,71,65,58,98,78,47,30.15,30.05,5,0,10,0.00
2012-5-4,92,76,62,73,68,60,97,77,46,30.10,29.96,5,0,6,0.00
2012-5-5,94,80,65,72,66,62,96,68,38,30.00,29.86,7,1,14,0.00
2012-5-6,92,76,68,74,69,65,96,82,49,29.96,29.84,7,0,11,0.13
2012-5-7,83,72,67,74,70,66,98,92,67,29.95,29.90,6,0,7,0.19
2012-5-8,87,74,63,73,68,62,98,85,57,29.94,29.83,6,0,12,0.02
2012-5-9,91,74,64,72,68,63,97,83,49,29.89,29.67,14,1,23,0.54
2012-5-10,83,70,58,66,60,55,97,74,39,29.94,29.78,6,0,7,0.09
2012-5-11,84,69,53,63,58,51,97,71,41,30.16,29.94,13,0,13,0.00
2012-5-12,83,70,58,67,61,57,98,74,51,30.26,30.14,7,1,14,0.00
2012-5-13,83,70,58,70,64,56,97,82,60,30.18,30.03,5,0,10,0.01
2012-5-14,86,74,65,73,68,63,97,82,57,30.07,29.90,12,1,13,0.01
2012-5-15,87,73,65,76,68,63,98,86,59,30.00,29.92,7,0,12,0.42
2012-5-16,83,73,69,72,69,66,97,87,67,30.01,29.90,6,0,9,0.01
2012-5-17,86,72,65,70,66,63,97,82,50,29.95,29.85,5,0,13,0.06
2012-5-18,80,68,63,72,66,62,98,92,68,30.01,29.90,6,0,10,0.11
2012-5-19,83,70,60,66,62,57,96,76,51,30.06,29.96,6,1,12,0.06
2012-5-20,78,64,51,62,56,49,96,78,50,30.05,29.94,9,1,10,0.01
2012-5-21,89,73,60,70,64,57,96,76,43,30.00,29.88,6,0,10,0.01
2012-5-22,88,73,62,74,66,60,96,80,49,29.94,29.81,11,1,12,0.21
2012-5-23,90,75,62,73,65,57,98,74,34,29.91,29.83,6,0,12,0.21
2012-5-24,92,78,67,74,70,66,97,79,45,29.96,29.88,6,0,12,0.00
2012-5-25,92,77,66,74,69,64,98,78,45,30.07,29.94,5,0,10,0.00
2012-5-26,94,78,63,73,67,61,97,73,40,30.09,29.96,7,0,12,0.00
2012-5-27,86,74,66,76,70,64,96,87,67,29.99,29.76,16,2,20,0.13
2012-5-28,79,74,71,75,72,70,97,94,84,29.86,29.70,12,2,22,1.33
2012-5-29,79,74,70,77,72,69,97,95,88,29.86,29.69,11,1,15,1.48
2012-5-30,92,79,69,75,72,68,97,79,49,29.84,29.76,5,1,9,0.01
2012-5-31,92,78,68,77,71,66,98,81,50,29.87,29.79,5,0,9,0.00
2012-6-1,88,77,67,76,71,66,97,82,61,29.91,29.77,9,0,11,0.01
2012-6-2,88,76,66,70,64,56,97,71,36,29.94,29.81,12,1,21,0.00
2012-6-3,91,75,59,68,62,56,94,66,41,30.04,29.91,7,0,11,0.00
2012-6-4,93,81,70,74,70,66,93,71,49,29.91,29.74,10,1,15,0.00
2012-6-5,92,77,67,76,69,64,95,78,55,29.85,29.72,10,1,14,0.11
2012-6-6,84,74,68,77,72,67,98,93,73,29.94,29.78,10,1,15,2.21
2012-6-7,76,72,69,72,69,65,98,91,78,29.98,29.91,9,0,11,0.08
2012-6-8,81,72,66,70,66,64,95,84,59,30.03,29.94,7,1,12,0.00
2012-6-9,77,71,66,73,69,64,97,93,85,30.06,29.97,5,0,10,0.82
2012-6-10,89,76,69,80,74,68,99,93,72,30.13,29.99,3,0,11,0.86
2012-6-11,94,79,71,79,73,69,98,83,49,30.12,30.01,10,1,20,0.00
2012-6-12,90,77,69,77,73,68,97,88,61,30.10,29.90,10,1,19,0.28
2012-6-13,92,81,71,78,74,70,98,81,55,29.94,29.84,5,0,9,0.30
2012-6-14,89,78,72,78,73,70,97,85,64,30.06,29.90,8,1,11,0.00
2012-6-15,86,76,67,73,67,62,96,77,47,30.11,30.00,7,1,12,0.00
2012-6-16,86,74,64,71,65,59,96,75,43,30.17,30.07,13,1,13,0.00
2012-6-17,87,72,60,70,64,58,97,77,47,30.13,30.00,8,1,11,0.00
2012-6-18,88,73,58,68,62,56,97,73,44,30.11,30.01,5,0,10,0.00
2012-6-19,89,74,59,71,65,57,98,76,48,30.15,30.07,7,0,10,0.00
2012-6-20,88,75,64,72,66,62,97,76,51,30.13,30.05,10,1,12,0.00
2012-6-21,89,76,62,73,67,61,97,77,53,30.07,29.93,7,1,9,0.00
2012-6-22,89,78,67,77,71,65,97,83,64,29.95,29.86,6,0,12,0.00
2012-6-23,92,78,70,79,74,68,98,86,64,29.96,29.87,5,0,9,0.02
2012-6-24,80,74,70,79,73,69,98,96,90,29.98,29.85,9,0,10,1.15
2012-6-25,89,78,72,80,75,71,99,91,70,29.86,29.64,10,0,14,1.89
2012-6-26,74,72,68,74,71,66,99,98,90,29.74,29.59,12,1,16,4.88
2012-6-27,87,75,65,71,64,58,89,72,39,30.00,29.73,7,1,12,0.00
2012-6-28,92,77,62,74,66,60,97,72,40,30.09,29.98,5,0,11,0.00
2012-6-29,96,82,69,77,71,66,92,73,51,30.00,29.86,11,1,12,0.00
2012-6-30,97,85,74,83,77,72,94,78,60,29.94,29.85,9,1,11,0.00
2012-7-1,97,85,74,84,78,70,95,78,59,30.11,29.90,16,1,27,0.02
2012-7-2,94,82,71,78,72,68,96,75,46,30.10,29.97,6,0,18,0.02
2012-7-3,96,84,73,78,74,70,96,74,45,30.05,29.92,9,0,14,0.00
2012-7-4,94,81,70,78,73,68,96,78,53,30.08,29.96,8,0,15,0.00
2012-7-5,95,83,71,78,74,70,97,76,49,30.04,29.91,9,1,10,0.00
2012-7-6,95,83,76,78,75,72,95,79,50,30.02,29.94,7,1,12,0.00
2012-7-7,96,84,73,77,74,71,97,74,47,30.08,29.99,5,0,11,0.00
2012-7-8,97,84,71,78,73,69,96,72,45,30.10,29.95,9,0,10,0.00
2012-7-9,96,85,74,78,74,71,95,73,46,30.01,29.90,7,0,9,0.00
2012-7-10,96,82,73,78,73,70,96,75,45,30.04,29.90,10,1,16,0.00
2012-7-11,92,78,71,78,73,70,97,85,55,30.05,29.97,5,0,10,0.02
2012-7-12,92,79,68,78,73,67,98,82,60,30.06,29.98,6,0,10,0.01
2012-7-13,93,81,72,78,75,71,97,82,55,30.11,30.01,7,0,11,0.00
2012-7-14,92,81,71,79,74,70,97,80,58,30.15,30.05,6,0,12,0.00
2012-7-15,88,77,69,79,73,68,97,89,67,30.15,30.04,7,0,9,1.10
2012-7-16,88,78,70,80,74,68,98,88,66,30.09,29.94,3,0,4,0.24
2012-7-17,91,77,71,79,74,70,98,89,61,30.01,29.92,4,0,8,0.13
2012-7-18,93,78,70,78,73,69,98,85,53,30.07,29.97,11,0,14,0.01
2012-7-19,86,77,73,79,74,72,97,90,76,30.15,30.03,12,0,12,0.53
2012-7-20,93,80,74,80,75,72,97,85,58,30.09,30.00,7,1,17,0.00
2012-7-21,93,81,69,79,74,67,98,81,50,30.13,30.02,5,0,7,0.00
2012-7-22,93,82,73,80,75,71,97,82,52,30.18,30.09,5,0,10,0.00
2012-7-23,93,81,71,79,74,70,98,82,53,30.19,30.07,9,0,10,0.00
2012-7-24,94,81,69,78,74,68,98,80,53,30.12,29.94,8,1,10,0.00
2012-7-25,96,81,73,82,76,72,98,84,54,29.99,29.92,6,0,12,0.00
2012-7-26,96,82,74,81,76,72,98,84,53,29.99,29.90,6,0,10,0.00
2012-7-27,95,82,72,80,75,71,97,81,56,30.03,29.93,6,1,11,0.00
2012-7-28,95,81,72,79,74,71,98,82,53,30.06,29.96,6,1,12,0.06
2012-7-29,96,82,74,80,75,72,98,82,54,30.02,29.89,10,1,11,0.06
2012-7-30,91,77,73,82,75,71,98,92,67,29.98,29.91,10,1,14,0.53
2012-7-31,90,80,72,80,75,71,98,87,68,29.98,29.90,9,1,14,0.01
2012-8-1,93,81,74,79,75,73,97,83,58,29.96,29.86,7,1,10,0.00
2012-8-2,94,80,71,81,74,70,98,85,55,29.97,29.87,6,0,11,0.00
2012-8-3,93,79,69,80,73,68,98,84,54,30.05,29.92,8,0,15,0.05
2012-8-4,90,78,68,78,73,68,99,86,63,30.12,30.01,9,1,14,0.48
2012-8-5,86,77,74,80,75,73,98,94,76,30.13,30.02,7,0,10,1.11
2012-8-6,88,78,74,80,75,72,97,92,72,30.12,29.99,4,0,6,0.27
2012-8-7,87,77,73,78,74,71,95,92,73,30.03,29.97,4,0,6,0.11
2012-8-8,85,76,74,80,74,72,95,93,79,30.03,29.97,5,0,7,0.83
2012-8-9,93,80,73,80,75,72,97,85,60,30.00,29.88,11,0,15,0.01
2012-8-10,91,81,73,78,74,69,97,81,56,29.97,29.88,11,1,16,0.00
2012-8-11,92,80,70,80,74,68,97,83,58,29.98,29.88,6,1,17,0.08
2012-8-12,93,82,72,79,75,71,97,82,55,30.01,29.93,7,0,10,0.00
2012-8-13,92,80,70,80,73,67,97,80,49,30.05,29.96,6,0,10,0.06
2012-8-14,94,78,66,78,72,65,98,83,53,30.02,29.91,7,0,10,0.34
2012-8-15,91,76,71,80,73,70,98,91,64,30.02,29.93,9,0,13,0.52
2012-8-16,94,80,70,80,74,70,98,84,55,30.05,29.93,5,0,10,0.00
2012-8-17,92,78,74,80,75,71,97,90,60,30.00,29.88,12,0,19,0.06
2012-8-18,92,81,72,78,74,71,98,82,56,29.94,29.83,6,0,10,0.01
2012-8-19,87,79,74,79,75,72,97,88,72,29.92,29.85,9,1,10,0.00
2012-8-20,86,77,73,77,74,71,97,91,69,29.98,29.90,5,0,9,0.03
2012-8-21,80,74,71,75,72,68,97,92,82,30.04,29.94,4,0,9,0.01
2012-8-22,85,76,70,77,72,69,97,90,72,30.07,29.99,6,0,6,0.01
2012-8-23,84,74,68,76,71,67,98,92,73,30.10,30.01,5,0,11,0.14
2012-8-24,88,75,67,75,70,66,98,85,60,30.10,30.00,5,0,6,0.00
2012-8-25,87,75,67,73,68,65,97,82,59,30.11,30.04,6,0,10,0.00
2012-8-26,88,76,65,74,69,63,97,80,57,30.10,29.99,9,1,14,0.01
2012-8-27,85,78,73,79,75,70,97,93,77,30.00,29.90,6,0,14,0.35
2012-8-28,92,80,73,82,76,72,97,89,66,29.99,29.87,6,0,16,0.74
2012-8-29,91,78,72,80,74,71,98,91,66,30.00,29.91,7,0,14,1.45
2012-8-30,92,78,72,81,75,72,98,92,67,30.14,29.97,10,0,13,1.73
2012-8-31,88,79,73,80,76,73,99,92,73,30.22,30.12,3,0,10,0.21
2012-9-1,93,81,73,80,75,72,98,83,57,30.19,30.04,3,0,5,0.01
2012-9-2,94,80,72,79,75,71,97,85,51,30.09,29.96,4,0,6,0.12
2012-9-3,89,77,72,80,74,71,97,91,70,30.05,29.96,6,0,11,0.70
2012-9-4,90,78,72,79,74,71,98,87,62,30.01,29.91,9,0,12,0.01
2012-9-5,93,80,70,79,73,68,98,82,51,29.97,29.89,6,0,7,0.00
2012-9-6,92,79,73,79,74,71,97,86,58,30.00,29.90,7,0,13,0.02
2012-9-7,94,81,71,78,74,70,98,81,53,29.97,29.85,6,0,9,0.01
2012-9-8,90,78,72,79,74,70,97,90,66,29.91,29.79,7,0,15,0.29
2012-9-9,88,78,69,77,74,66,98,87,61,29.96,29.77,5,0,10,0.15
2012-9-10,86,74,65,70,66,62,97,79,53,30.09,29.94,6,0,10,0.00
2012-9-11,86,72,61,69,64,60,97,77,49,30.21,30.08,9,0,12,0.01
2012-9-12,85,73,66,73,67,64,94,81,57,30.23,30.15,10,1,14,0.00
2012-9-13,82,72,66,76,69,64,96,91,76,30.20,30.12,6,0,11,0.05
2012-9-14,84,74,69,77,72,68,98,91,75,30.15,30.07,9,0,11,0.32
2012-9-15,88,76,68,75,70,67,98,84,61,30.14,30.04,4,0,7,0.01
2012-9-16,89,75,66,76,71,65,98,87,58,30.10,29.99,6,0,7,0.87
2012-9-17,89,76,68,77,72,67,98,88,57,30.05,29.89,6,0,11,0.02
2012-9-18,78,74,71,75,72,70,97,95,86,29.92,29.79,7,0,19,0.54
2012-9-19,86,76,68,73,71,68,97,85,59,30.05,29.87,5,0,7,0.01
2012-9-20,82,73,70,75,71,69,98,94,77,30.08,30.00,5,0,7,0.34
2012-9-21,85,75,68,75,71,67,98,89,70,30.05,29.97,6,0,9,0.01
2012-9-22,90,76,67,76,70,66,98,83,51,30.05,29.96,4,0,6,0.00
2012-9-23,87,74,61,70,65,57,97,76,38,30.09,30.00,8,0,13,0.01
2012-9-24,85,69,56,64,58,53,95,74,35,30.12,30.05,5,0,5,0.00
2012-9-25,84,72,63,68,64,61,94,79,56,30.17,30.09,7,0,9,0.00
2012-9-26,87,73,62,78,68,60,97,86,66,30.17,30.08,7,0,10,0.11
2012-9-27,88,76,68,76,71,66,97,85,63,30.17,30.05,7,0,9,0.01
2012-9-28,89,75,64,75,68,63,97,83,55,30.10,29.98,4,0,6,0.00
2012-9-29,88,75,63,74,68,62,97,82,55,30.02,29.86,3,0,5,0.01
2012-9-30,86,74,70,77,71,68,96,91,72,29.90,29.78,4,0,7,0.74
2012-10-1,89,76,66,80,73,65,98,89,67,29.81,29.69,5,0,9,0.03
2012-10-2,86,78,72,76,74,70,97,88,69,29.99,29.73,10,0,10,0.12
2012-10-3,82,74,70,75,71,68,96,89,71,30.18,29.99,2,0,4,0.48
2012-10-4,82,74,70,76,72,69,98,94,80,30.23,30.13,3,0,5,0.23
2012-10-5,85,76,71,77,73,70,98,92,71,30.16,29.99,10,0,14,0.68
2012-10-6,87,76,69,77,72,68,99,89,63,30.02,29.88,4,0,9,0.49
2012-10-7,88,76,67,78,71,66,98,87,63,30.00,29.91,4,0,9,0.49
2012-10-8,82,71,64,76,69,62,98,93,76,30.07,29.94,5,0,12,0.96
2012-10-9,63,60,58,62,59,56,96,93,88,30.13,30.04,4,0,6,0.00
2012-10-10,80,68,58,68,62,57,98,84,57,30.15,30.03,7,0,10,0.00
2012-10-11,79,66,56,64,59,55,96,80,52,30.24,30.12,6,0,8,0.01
2012-10-12,83,69,56,70,62,55,97,81,55,30.24,30.12,5,0,9,0.00
2012-10-13,83,70,62,70,65,61,97,87,59,30.28,30.18,6,0,15,0.02
2012-10-14,82,71,63,74,68,62,98,91,76,30.21,30.02,3,0,6,0.01
2012-10-15,86,74,65,75,69,64,98,86,60,30.02,29.79,6,0,10,0.01
2012-10-16,76,65,55,65,58,51,93,79,54,29.94,29.85,6,0,12,0.01
2012-10-17,74,64,55,67,60,54,97,89,76,29.96,29.84,3,0,4,0.01
2012-10-18,84,70,59,73,65,58,98,87,60,29.88,29.77,6,0,10,0.00
2012-10-19,80,70,59,68,61,50,97,76,39,29.89,29.79,5,0,9,0.42
2012-10-20,79,63,50,58,52,47,96,73,37,29.97,29.85,9,0,14,0.01
2012-10-21,77,62,49,60,54,48,96,78,45,30.12,29.96,6,0,7,0.00
2012-10-22,76,63,54,63,57,52,97,81,55,30.19,30.09,7,0,9,0.00
2012-10-23,80,66,56,68,61,54,97,84,61,30.15,30.06,9,0,11,0.00
2012-10-24,83,70,62,69,65,60,98,85,56,30.13,30.02,9,0,11,0.01
2012-10-25,83,73,67,73,68,65,98,87,64,30.03,29.94,6,1,11,0.01
2012-10-26,80,71,68,70,66,59,97,84,67,29.94,29.75,13,1,16,0.00
2012-10-27,73,68,65,65,62,59,88,81,72,29.75,29.60,13,1,15,0.00
2012-10-28,75,64,55,61,56,48,91,76,56,29.76,29.63,11,1,14,0.00
2012-10-29,65,54,45,47,40,34,82,62,35,29.82,29.66,13,2,17,0.00
2012-10-30,64,52,42,36,33,30,71,51,30,29.88,29.71,14,3,23,0.00
2012-10-31,71,55,41,49,41,34,83,60,36,29.97,29.84,13,2,18,0.00
2012-11-1,72,58,45,49,43,33,90,63,26,29.99,29.89,9,1,14,0.00
2012-11-2,77,57,40,55,45,37,95,69,35,30.08,29.94,11,1,13,0.00
2012-11-3,82,66,52,62,57,50,97,77,47,30.11,30.00,5,0,6,0.00
2012-11-4,84,68,57,68,60,54,97,78,47,30.07,29.94,9,1,14,0.00
2012-11-5,71,61,50,64,54,47,94,79,50,30.02,29.94,6,0,11,0.00
2012-11-6,69,58,49,59,53,43,96,85,64,30.00,29.82,6,0,9,0.30
2012-11-7,61,50,39,49,44,37,94,81,57,30.01,29.87,6,0,9,0.05
2012-11-8,65,49,40,50,44,38,97,82,51,30.18,30.00,4,0,7,0.04
2012-11-9,70,51,35,50,42,34,97,75,34,30.30,30.17,4,0,5,0.01
2012-11-10,73,54,37,54,46,35,97,78,48,30.36,30.26,5,0,8,0.00
2012-11-11,78,63,50,63,57,48,100,83,54,30.37,30.28,7,0,12,0.00
2012-11-12,76,65,54,69,62,53,98,91,78,30.30,30.19,7,0,7,0.14
2012-11-13,71,63,57,67,61,56,98,93,87,30.22,30.14,5,0,6,0.02
2012-11-14,60,55,52,59,54,50,97,94,91,30.29,30.19,7,1,10,0.00
2012-11-15,60,52,48,54,50,47,96,92,78,30.24,30.15,5,0,7,0.01
2012-11-16,54,50,47,51,48,46,97,92,87,30.27,30.19,6,0,9,0.01
2012-11-17,65,55,49,53,48,45,92,79,63,30.29,30.21,9,1,13,0.00
2012-11-18,70,57,48,55,50,44,93,78,58,30.28,30.17,7,1,10,0.00
2012-11-19,61,58,54,56,53,50,91,85,80,30.22,30.10,7,0,10,0.00
2012-11-20,70,58,49,57,52,47,96,82,58,30.15,30.02,7,0,9,0.00
2012-11-21,69,56,44,53,48,41,96,78,48,30.13,30.04,6,0,10,0.00
2012-11-22,68,50,39,44,40,36,94,71,33,30.22,30.11,7,0,10,0.00
2012-11-23,73,51,34,51,42,32,96,75,40,30.22,30.03,6,0,9,0.00
2012-11-24,66,52,38,48,40,32,92,68,33,30.12,30.00,9,0,11,0.00
2012-11-25,65,45,30,39,31,26,89,64,25,30.20,30.09,5,0,8,0.00
2012-11-26,68,48,30,45,36,28,95,68,25,30.27,30.15,3,0,4,0.00
2012-11-27,74,59,48,64,54,44,94,84,68,30.20,30.06,6,0,10,0.04
2012-11-28,58,54,46,54,51,42,97,92,86,30.36,30.15,4,0,6,0.04
2012-11-29,68,52,42,56,48,40,96,85,65,30.38,30.30,6,0,7,0.01
2012-11-30,73,57,45,59,52,43,97,84,61,30.34,30.24,7,0,8,0.00
2012-12-1,73,61,50,62,56,49,97,86,65,30.34,30.25,6,0,8,0.00
2012-12-2,77,61,50,64,56,48,97,84,58,30.35,30.24,5,0,6,0.00
2012-12-3,72,61,53,65,58,51,98,91,79,30.33,30.24,2,0,4,0.01
2012-12-4,75,61,51,65,56,49,98,86,60,30.34,30.23,4,0,5,0.00
2012-12-5,76,60,45,61,53,44,97,80,50,30.24,30.08,4,0,5,0.01
2012-12-6,69,62,55,63,59,54,96,89,80,30.12,30.04,7,0,15,0.01
2012-12-7,67,59,53,61,56,51,97,90,77,30.07,29.96,4,0,7,0.01
2012-12-8,71,60,54,64,57,52,98,92,77,30.09,29.99,3,0,5,0.02
2012-12-9,73,65,59,68,63,58,98,94,86,30.12,30.00,2,0,3,0.01
2012-12-10,80,68,60,67,63,59,98,85,56,30.00,29.79,9,0,11,0.01
2012-12-11,75,66,59,70,64,57,97,92,80,30.07,29.81,5,0,8,0.00
2012-12-12,59,55,53,57,53,49,97,93,85,30.15,30.04,5,0,7,0.30
2012-12-13,54,48,45,53,46,44,97,95,90,30.31,30.13,6,0,9,0.04
2012-12-14,64,51,46,54,47,43,97,89,62,30.35,30.17,3,0,7,0.02
2012-12-15,70,58,47,62,54,45,96,87,73,30.20,30.08,4,0,5,0.00
2012-12-16,78,64,56,66,60,56,98,88,60,30.10,29.92,6,0,9,0.00
2012-12-17,74,64,58,69,62,57,98,92,80,29.93,29.77,11,1,15,0.16
2012-12-18,70,59,41,61,52,38,97,79,39,30.05,29.81,10,1,15,0.01
2012-12-19,73,51,34,47,40,33,96,72,30,30.14,30.04,6,0,6,0.00
2012-12-20,77,56,40,68,52,38,98,87,64,30.09,29.76,12,1,23,0.15
2012-12-21,56,46,40,47,31,24,78,57,34,30.15,29.91,20,3,20,0.15
2012-12-22,58,41,30,33,27,23,88,59,31,30.27,30.15,9,1,12,0.00
2012-12-23,62,43,27,42,32,24,93,70,32,30.27,30.14,4,0,6,0.00
2012-12-24,68,53,38,57,47,36,95,82,61,30.15,29.92,6,0,12,0.14
2012-12-25,73,59,51,66,57,50,97,92,74,30.01,29.85,5,0,6,0.15
2012-12-26,68,58,38,65,52,33,97,81,59,29.98,29.64,18,4,21,0.32
2012-12-27,58,43,34,44,36,31,92,78,56,30.10,29.97,10,1,13,0.00
2012-12-28,60,45,30,51,40,29,96,83,55,30.15,29.88,5,0,6,0.00
2012-12-29,67,56,42,67,51,32,98,84,68,30.19,29.73,11,2,15,0.61
2012-12-30,53,42,31,36,32,28,90,69,44,30.42,30.19,5,0,12,0.00
2012-12-31,66,46,30,52,40,28,96,80,59,30.42,30.23,5,0,7,0.00
2013-1-1,74,57,41,60,51,39,100,82,60,30.23,29.98,10,1,14,0.00